星链-2267 (STARLINK-2267 )

导读 | 星芒AI

STARLINK-2267 是 SpaceX Starlink 项目中的一颗低轨通信卫星,属于第二代 Starlink 卫星(Gen2)。它于2023年发射,部署在约550公里高度的近地轨道,旨在为全球提供高速、低延迟的互联网服务。该卫星采用先进推进系统和激光通信技术,提高网络效率并减少对地面基站的依赖。作为 Starlink 卫星群的一部分,STARLINK-2267 有助于扩大 SpaceX 在全球宽带市场的覆盖能力。

基本信息
目录编号:
48031
目录名称:
STARLINK-2267
国际标识:
2021-024BG
轨道中心:
EARTH
卫星名称:
星链-2267
卫星全名:
星链-2267 (STARLINK-2267 )
卫星状态:
已陨落 最后检测时间 2025-02-18
发射日期:
2021-03-24 UTC
国别 :
美国 (US)
星等 :
--
轨道信息
数据来源 国际轨道数据
星历时间: 2025-02-18T13:49:03+0800
轨道信息已过期254天
半长轴: 6522.284km
偏心率: 0.0002595
轨道倾角: 53.020°
近地点辐角 246.088°
升交点赤经 109.418°
平近点角 292.314°
近地点: 142.456km
远地点: 145.842km
周期: 87.369分钟
每日圈数: 16.481749
详细信息
固有亮度:
5
最大亮度:
2.5
卫星平台:
Starlink V1.0
覆盖范围:
全球
运营商:
太空探索技术公司
运营商所在国:
美国
制造商(研发单位):
太空探索技术公司
制造商所在国:
美国
使用方式:
暂无
卫星简介
星链(Starlink)计划是由太空探索技术公司(SpaceX)提出的一个巨型低轨卫星互联网星座项目,计划在2019年至2024年间在太空搭建由约1.2万颗卫星组成的“星链”网络,其中1584颗将部署在地球上空550千米处的近地轨道,并从2020年开始工作。该卫星仍在工作。